Content
SEND FEEDBACK

Daily
Averages
Monthly
Summary
United States of America

HONOLULU - NUUANU RESERVOIR, HAWAII


Home > North America > United States > Hawaii
Elevation: 410 feet     Latitude: 21 21N     Longitude: 157 50W

WEATHER
 
SELECT A DAY
Number of Records: 182,801;   Date Range: 1/1/95 - 12/27/14
 
SHARE

PRINT THIS DATA

[ ← Previous Day ]
WEATHER ALMANAC - JANUARY 23, 2013
[ Next Day → ]
[ °C ]   °F
Weather ElementAverageHighLow
Temperature74.1 °F80.1 °F (2:53 pm)71.1 °F (3:53 am)
Dewpoint62.1 °F64.9 °F (12:53 pm)57 °F (5:53 am)
Humidity66.6 %81 % (11:53 pm)54 % (2:53 pm)
Barometer30.05 in30.09 in (9:53 am)30.00 in (2:53 pm)
Wind Speed8.3 mph17.3 mph (3:53 am)
Wind Gust23 mph (3:53 am)
Weather ElementAverage
Visibility10 mi
Wind DirectionENE (59.2 °)

Weather ElementTotal
Precipitation---
Cooling Degree Days10.6 (Base 65)
Growing Degree Days25.6 (Base 50)
Averaged from 26 records on January 23, 2013
WEATHER CONDITIONS BREAKOUT
WIND DIRECTION BREAKOUT
WEATHER BY HOUR - JANUARY 23, 2013
[ °C ]   °F
Local TimeTemperatureDewpointHumidityBarometerVisibilityWind DirectionWind SpeedGust SpeedPrecipitationEventsConditions
1:53 AM73.0 °F59.0 °F61 %30.06 in10.0 miENE (60°)8.1 mphOvercast
2:53 AM72.0 °F61.0 °F68 %30.04 in10.0 miNE (50°)9.2 mphMostly Cloudy
3:53 AM71.1 °F60.1 °F68 %30.03 in10.0 miENE (60°)17.3 mph23.0 mph0.00 inMostly Cloudy
4:53 AM71.1 °F57.9 °F63 %30.03 in10.0 miENE (60°)11.5 mphMostly Cloudy
5:53 AM71.1 °F57.0 °F61 %30.04 in10.0 miNE (50°)9.2 mphMostly Cloudy
6:53 AM72.0 °F57.0 °F59 %30.05 in10.0 miENE (60°)9.2 mphMostly Cloudy
7:53 AM72.0 °F60.1 °F66 %30.07 in10.0 miNE (50°)9.2 mphScattered Clouds
8:53 AM71.1 °F63.0 °F75 %30.08 in10.0 miEast (90°)12.7 mphMostly Cloudy
9:53 AM72.0 °F63.0 °F73 %30.09 in10.0 miENE (70°)8.1 mphMostly Cloudy
10:53 AM75.9 °F63.0 °F64 %30.08 in10.0 miNE (50°)11.5 mphMostly Cloudy
11:34 AM77.0 °F62.6 °F61 %30.06 in10.0 miENE (60°)10.4 mph23.0 mphMostly Cloudy
11:53 AM77.0 °F63.0 °F62 %30.06 in10.0 miENE (60°)11.5 mphMostly Cloudy
12:53 PM73.9 °F64.9 °F73 %30.04 in10.0 miESE (110°)6.9 mph0.00 inRainLight Rain
1:12 PM75.2 °F64.4 °F69 %30.03 in10.0 miNNE (20°)8.1 mph0.00 inRainLight Rain
1:31 PM78.8 °F62.6 °F57 %30.02 in10.0 miENE (60°)4.6 mph0.00 inMostly Cloudy
1:53 PM79.0 °F62.1 °F56 %30.01 in10.0 miEast (90°)8.1 mph0.00 inScattered Clouds
2:53 PM80.1 °F62.1 °F54 %30.00 in10.0 miSE (130°)11.5 mphMostly Cloudy
3:53 PM79.0 °F63.0 °F58 %30.01 in10.0 miNNE (30°)5.8 mphMostly Cloudy
4:53 PM77.0 °F63.0 °F62 %30.02 in10.0 miENE (70°)8.1 mphMostly Cloudy
5:53 PM73.9 °F63.0 °F68 %30.03 in10.0 miNNE (30°)6.9 mphMostly Cloudy
6:53 PM73.0 °F63.0 °F71 %30.03 in10.0 miNorth (10°)3.5 mphMostly Cloudy
7:53 PM73.0 °F64.0 °F73 %30.05 in10.0 miNNE (20°)5.8 mphMostly Cloudy
8:53 PM72.0 °F64.0 °F76 %30.06 in10.0 miNE (50°)3.5 mphScattered Clouds
9:53 PM72.0 °F64.0 °F76 %30.07 in10.0 miNNE (20°)4.6 mphScattered Clouds
10:53 PM72.0 °F64.0 °F76 %30.06 in10.0 miNE (40°)4.6 mphMostly Cloudy
11:53 PM71.1 °F64.9 °F81 %30.06 in10.0 miSE (140°)4.6 mphOvercast
Hourly data recorded from PHNL, located miles away from Honolulu - Nuuanu Reservoir, Hawaii







STORIES FROM OUR PARTNERS